Regional Weather Roundup
Issued by NWS Grand Forks, ND

Home | Current Version | Previous Version | Graphics & Text | Print | Product List | Glossary On
Versions: 1 2 3 4 5 6 7 8 9 10 11 12 13 14 15 16 17 18 19 20 21 22 23 24 25 26 27 28 29 30 31 32 33 34 35 36 37 38 39 40 41 42 43 44 45 46 47 48 49 50
000
ASUS43 KFGF 030710
RWRFGF
PRAIRIE TO PINES  WEATHER ROUNDUP
NATIONAL WEATHER SERVICE EASTERN NORTH DAKOTA/GRAND FORKS ND
200 AM CDT THU SEP 03 2015

 **SATELLITE DATA USED TO AUGMENT SKY COVER AT AUTOMATED STATIONS**
 *****  WEATHER ACROSS EASTERN NORTH DAKOTA  *****

CITY           SKY/WX    TMP DP  RH WIND       PRES   REMARKS
GRAND FORKS    PTCLDY    71  67  87 SE15      29.79S
GRAND FRKS AFB CLEAR     71  67  89 S9        29.79F
GRAND FRKS NWS   N/A     70 N/A N/A SE9         N/A
DEVILS LAKE    MOCLDY    72  64  78 SE14      29.76F
FARGO          CLEAR     73  68  84 SE13      29.80F
WAHPETON ARPT  MOSUNNY   70  64  83 SE12      29.83S
$$

 ***** WEATHER ACROSS CENTRAL AND WESTERN NORTH DAKOTA  *****

CITY           SKY/WX    TMP DP  RH WIND       PRES   REMARKS
BISMARCK       PTCLDY    71  69  93 E7        29.71F
MINOT          PTCLDY    70  66  87 SE7       29.68F
JAMESTOWN      CLOUDY    73  71  93 SE13      29.76F FOG
MINOT AFB      PTCLDY    69  68  99 SE9       29.67S
GARRISON         N/A     73  68  84 SE9       29.70F
WILLISTON      MOCLDY    72  53  51 S3        29.64S
DICKINSON      PTCLDY    68  58  70 S9        29.69F
HETTINGER      CLEAR     68  59  73 SE7       29.73F
$$

 *****  OTHER AIRPORT OBSERVATIONS IN OUR AREA  *****

CITY           SKY/WX    TMP DP  RH WIND       PRES   REMARKS
WALHALLA       FAIR      72  72 100 MISG      29.77F
GRAFTON AIRPOR FAIR      72  70  94 S10       29.79S
VALLEY CITY AR CLOUDY    73  73 100 SE12      29.80S FOG
CANDO          NOT AVBL
CAVALIER APRT  FAIR      72  66  83 S9        29.78S
GWINNER        CLOUDY    75  75 100 SE13      29.79F
SHEYENNE NWR     N/A     72  70  94 SE12      29.95S
ROLLA          FAIR      68  68 100 S7        29.78F
 ***** THE ABOVE OBSERVATIONS ARE NON NWS ARE NOT QUALITY
       CONTROLLED AND MAY MIS-REPORT RAIN FOR SNOW...
$$

  *****  WEATHER ACROSS NORTHERN MINNESOTA  *****

CITY           SKY/WX    TMP DP  RH WIND       PRES   REMARKS
FLAG ISLAND    CLEAR     70  66  88 S16       29.87S
WARROAD        CLEAR     68  64  88 SE8       29.87F
ROSEAU         CLEAR     70  64  83 S12       29.85S
HALLOCK        CLEAR     70  66  88 SE10      29.80S
THF RVR FALLS  CLEAR     66  64  94 SE13      29.84F
BAUDETTE       CLEAR     65  63  93 SE7       29.90S
WASKISH        CLEAR     63  63 100 CALM      29.91S
CROOKSTON      PTCLDY    70  66  88 SE12      29.82F
STEPHEN NDAWN    N/A     70  66  88 SE10        N/A
GREENBUSH NDAW   N/A     68  64  88 S9          N/A
$$
  *****  WEATHER ACROSS CENTRAL AND WEST MINNESOTA  *****

CITY           SKY/WX    TMP DP  RH WIND       PRES   REMARKS
FOSSTON        CLEAR     66  63  88 SE10      29.87F
BEMIDJI        CLEAR     64  63  96 SE7       29.91F
PARK RAPIDS    PTCLDY    68  65  90 SE7       29.91S
ELBOW LAKE     CLOUDY    70  69  98 SE12      29.86S FOG
WADENA         CLOUDY    70  66  88 SE10      29.90S
DETROIT LAKES  CLOUDY    70  66  88 SE15      29.89S
MOORHEAD       CLEAR     72  68  88 SE9       29.82F
FERGUS FALLS   CLOUDY    72  72 100 SE13G18   29.84S FOG
MORRIS MN      CLEAR     70  70 100 E9        29.85F FOG
STAPLES        CLOUDY    68  66  94 SE5       29.91F
$$
  *****  WEATHER ELSEWHERE ACROSS MINNESOTA  *****

CITY           SKY/WX    TMP DP  RH WIND       PRES   REMARKS
DULUTH         CLOUDY    63  62  97 E3        29.97F FOG
INTRNTL FALLS  CLEAR     61  60  97 SE3       29.94R FOG
ELY              N/A     54  54 100 CALM      29.99S FOG
CLOQUET        FOG       63  61  94 E5        29.97F VSB 1/4
WHEATON        MOCLDY    68  66  94 E13       29.85R FOG
BRAINERD       MOCLDY    66  65  96 SE7       29.93S
HIBBING        CLEAR     60  58  92 SE6       29.97F
ALEXANDRIA     CLOUDY    69  67  93 E12       29.91S
SAINT CLOUD    CLOUDY    68  66  93 E8        29.91S
MINNEAPOLIS    MOCLDY    68  66  93 E6        29.90F
$$

  *****  WEATHER ACROSS SOUTH DAKOTA  *****

CITY           SKY/WX    TMP DP  RH WIND       PRES   REMARKS
SIOUX FALLS    CLEAR     72  70  93 SE6       29.83F
BROOKINGS      CLEAR     72  68  88 SE10      29.86S
WATERTOWN      CLEAR     73  70  90 SE12      29.82F
HURON          CLEAR     73  70  90 SE10      29.76S
SISSETON         N/A     73  72  96 S9        29.81S
ABERDEEN       CLEAR     74  71  91 SE7       29.75F
MITCHELL       CLEAR     72  70  93 SE9       29.78F
PIERRE         CLEAR     78  58  49 S8        29.71S
MOBRIDGE       CLEAR     74  72  93 SE8       29.69S
RAPID CITY     CLEAR     67  48  50 SE3       29.79F
$$

  *****  SOME WEATHER IN NEARBY STATES *****

CITY           SKY/WX    TMP DP  RH WIND       PRES   REMARKS
GLASGOW MT     PTCLDY    72  38  29 N20G28    29.69R
GREAT FALLS MT CLOUDY    61  38  42 NE14      29.87R
CHEYENNE WY    MOCLDY    65  44  46 W10       30.08S
SCOTTSBLUFF NE PTCLDY    67  51  56 E6        29.91S
OMAHA NE       CLEAR     77  70  79 S12       29.86F
DES MOINES IA  PTCLDY    76  68  76 S9        29.90F
DAVENPORT IA   MOCLDY    74  67  78 S8        29.95F
CHICAGO IL     MOCLDY    74  68  81 CALM      29.95F
EAU CLAIRE WI  CLOUDY    69  67  93 NE5       29.91F
LA CROSSE WI   CLEAR     75  69  81 S7        29.89F
$$

  *****  SOME NATIONAL WEATHER *****

CITY           SKY/WX    TMP DP  RH WIND       PRES   REMARKS
LA GUARDIA NY  PTCLDY    78  70  76 NW6       29.85F
RALEIGH NC     CLOUDY    70  69  97 CALM      29.97S FOG
ATLANTA GA     CLOUDY    75  71  87 NW3       30.00F
NEW ORLEANS LA CLOUDY    78  71  79 E3        29.96F
OKLAHOMA CITY  PTCLDY    71  63  75 S7        29.96S
ALBUQUERQUE NM MOCLDY    70  49  47 SE5       30.20F
SALT LAKE CITY MOCLDY    82  36  19 SE23G31   29.86S
LOS ANGELES CA MOCLDY    68  61  77 SW6       29.94S
BOISE ID       MOCLDY    64  42  44 W14       29.75R
SEATTLE WA     PTCLDY    54  49  83 CALM      29.97S
$$

*** WEATHER ACROSS MANITOBA...SASKATCHEWAN AND ONTARIO ***
                ***ONTARIO***

CITY           SKY/WX    TMP DP  RH WIND       PRES   REMARKS
GERALDTON      CLEAR     55  55 100 CALM      30.02R
THUNDER BAY    CLEAR     50  50 100 W3        30.00S
SIOUX LOOKOUT  PTCLDY    59  57  94 S5        29.96S
TORONTO        MOCLDY    73  70  88 NW7       29.92F
BIG TROUT LK   CLEAR     64  59  82 S7        29.83S
PICKLE LAKE    NOT AVBL
DRYDEN         CLEAR     66  61  82 S9        29.95R
KENORA         CLEAR     68  64  88 S9        29.90S
$$
                *** MANITOBA***

CITY           SKY/WX    TMP DP  RH WIND       PRES   REMARKS
BRANDON        PTCLDY    72  68  88 SE12      29.71F
DAUPHIN        CLEAR     77  66  69 VRB3      29.65S
ISLAND LAKE    CLOUDY    64  64 100 SE5       29.77S
PILOT MOUND      N/A     72  66  83 S14         N/A
THE PAS        MOCLDY    64  55  72 SE10      29.64S
THOMPSON       CLOUDY    59  55  88 NE9       29.72F
WINNIPEG       NOT AVBL
LYNN LAKE      CLOUDY    57  50  77 E5        29.75F
CHURCHILL      MOCLDY    46  46 100 E7        29.80S
$$
                ***SASKATCHEWAN***

CITY           SKY/WX    TMP DP  RH WIND       PRES   REMARKS
ESTEVAN        MOCLDY    75  63  64 S13       29.64S
KINDERSLEY     CLOUDY    48  41  76 VRB2      29.80R
LLOYDMINSTER   CLEAR     48  43  81 W10       29.75R
PRINCE ALBERT  CLOUDY    52  52 100 CALM      29.62F
REGINA         PTCLDY    59  52  77 NW10      29.71R
YORKTON        PTCLDY    61  59  94 W6        29.69R
N. BATTLEFORD  CLEAR     55  45  67 W14       29.74R
LA RONGE       PTCLDY    63  55  77 E8        29.61S
SASKATOON      MOCLDY    61  48  63 W12       29.72R
SWIFT CURRENT  MOCLDY    59  43  55 NW12G17   29.79R
$$
NOTE: THESE ARE AUTOMATED STATIONS WITH LIMITED QUALITY CONTROL
      "FAIR" INDICATES FEW OR NO CLOUDS BELOW 12,000 FEET WITH NO
      SIGNIFICANT WEATHER AND/OR OBSTRUCTIONS TO VISIBILITY.
      SKY/WX - SKY CONDITION AND SIGNIFICANT WEATHER.
      TMP - AIR TEMPERATURE.    DP   - DEWPOINT TEMPERATURE.
      RH  - RELATIVE HUMIDITY.  PRES - PRESSURE.
      HX  - HEAT INDEX.         WCI  - WIND CHILL INDEX.
$



USA.gov is the U.S. government's official web portal to all federal, state and local government web resources and services.